Location: Unspecified
(38.9833°N, 0.0000°E)
Time: 18:11:23
(UTC+00:00)

ISS - Visible Passes

Search period start: 16 July 2019 00:00
Search period end: 26 July 2019 00:00
Orbit: 409 x 418 km, 51.6° (Epoch: 17 July)

Date Brightness Start Highest point End Pass type
(mag) Time Alt. Az. Time Alt. Az. Time Alt. Az.
16 Jul -0.8 02:45:55 10° NNW 02:48:20 18° NNE 02:50:44 10° ENE visible
16 Jul -3.9 21:02:56 10° SW 21:06:15 71° SE 21:09:35 10° NE visible
16 Jul -0.9 22:40:47 10° WNW 22:43:14 19° NNW 22:45:42 10° NNE visible
17 Jul -0.4 01:56:59 10° NNW 01:58:51 14° NNE 02:00:43 10° NE visible
17 Jul -3.2 03:32:48 10° NW 03:36:05 60° NE 03:39:20 10° ESE visible
17 Jul -3.2 20:13:57 10° SSW 20:17:02 36° SE 20:20:09 10° ENE visible
17 Jul -1.5 21:50:54 10° W 21:53:47 26° NNW 21:56:40 10° NNE visible
17 Jul -0.1 23:30:44 10° NNW 23:31:22 10° N 23:32:00 10° N visible
18 Jul -0.2 01:08:06 10° N 01:09:17 11° NNE 01:10:29 10° NNE visible
18 Jul -2.1 02:43:39 10° NW 02:46:45 35° NNE 02:49:49 10° E visible
18 Jul -2.4 21:01:12 10° WSW 21:04:23 41° NNW 21:07:35 10° NE visible
18 Jul -0.3 22:40:19 10° NW 22:41:46 12° NNW 22:43:14 10° NNE visible
19 Jul -1.3 01:54:34 10° NNW 01:57:19 23° NNE 02:00:04 10° E visible
19 Jul -3.5 03:30:57 10° WNW 03:34:08 44° SW 03:37:17 10° SSE visible
19 Jul -3.5 20:11:43 10° WSW 20:15:03 73° NW 20:18:24 10° NE visible
19 Jul -0.5 21:50:08 10° WNW 21:52:12 15° NNW 21:54:17 10° NNE visible
20 Jul -0.8 01:05:33 10° NNW 01:07:50 17° NNE 01:09:07 14° NE visible
20 Jul -3.1 02:45:53 42° SE 02:45:53 42° SE 02:48:11 10° SE visible
20 Jul -0.9 21:00:05 10° WNW 21:02:41 20° NNW 21:05:17 10° NNE visible
21 Jul -0.5 00:16:34 10° NNW 00:18:02 13° NNE 00:18:02 13° NNE visible
21 Jul -1.6 20:10:13 10° W 20:13:12 29° NNW 20:16:12 10° NE visible
21 Jul -0.3 21:49:49 10° NNW 21:50:45 11° N 21:51:39 10° N visible
21 Jul -0.4 23:27:39 10° N 23:28:40 11° N 23:29:25 10° NNE visible
22 Jul -0.6 20:59:27 10° NW 21:01:07 13° NNW 21:02:45 10° NNE visible
23 Jul -0.8 20:09:16 10° WNW 20:11:30 17° NNW 20:13:45 10° NNE visible
23 Jul -0.5 23:24:58 10° NNW 23:25:55 14° N 23:25:55 14° N visible
24 Jul -0.7 22:35:58 10° NNW 22:37:31 13° NNE 22:37:57 12° NNE visible
25 Jul -0.6 20:08:47 10° NNW 20:09:55 11° NNW 20:11:04 10° N visible
25 Jul -0.6 21:47:03 10° N 21:47:50 11° N 21:48:38 10° NNE visible
25 Jul -0.4 23:22:27 10° NNW 23:22:49 12° NNW 23:22:49 12° NNW visible
